Regional Weather Roundup
Issued by NWS

Home | Current Version | Previous Version | Graphics & Text | Print | Product List | Glossary On
Versions: 1 2 3 4 5 6 7 8 9 10 11 12 13 14 15 16 17 18 19 20 21 22 23 24 25 26 27 28 29 30 31 32 33 34 35 36 37 38 39 40 41 42 43 44 45 46 47 48 49 50
000
ASUS43 KBIS 271902
RWRND

NORTH DAKOTA REGIONAL WEATHER ROUNDUP
NATIONAL WEATHER SERVICE BISMARCK ND
200 PM CDT WED MAY 27 2015

NOTE: "FAIR" INDICATES FEW OR NO CLOUDS BELOW 12,000 FEET WITH NO
SIGNIFICANT WEATHER AND/OR OBSTRUCTIONS TO VISIBILITY.


NDZ001>003-009>011-017-272000-
NORTHWEST NORTH DAKOTA

CITY           SKY/WX    TMP DP  RH WIND       PRES   REMARKS
WILLISTON      CLOUDY    83  41  22 SE13G21   29.89F
MINOT          MOSUNNY   77  51  40 NE6       29.95F
MINOT AFB      MOSUNNY   76  52  42 SE9G18    29.95F
$$

NDZ018>021-031>035-040>046-272000-
SOUTHWEST NORTH DAKOTA

CITY           SKY/WX    TMP DP  RH WIND       PRES   REMARKS
BISMARCK       PTSUNNY   81  48  31 SE13      29.95F
DICKINSON      PTSUNNY   78  49  35 SE18      29.90F
GARRISON       NOT AVBL
HETTINGER ARPT PTSUNNY   73  51  46 S20G29    29.95F
$$

NDZ004>008-012>016-024-026-027-054-272000-
NORTHEAST NORTH DAKOTA

CITY           SKY/WX    TMP DP  RH WIND       PRES   REMARKS
GRAND FORKS    SUNNY     72  50  45 N10       29.97S
GRND FRKS AFB  SUNNY     71  50  46 NE10      29.98S
DEVILS LAKE    SUNNY     72  48  43 E3        29.98S
$$

NDZ022-023-025-028>030-036>039-047>053-272000-
SOUTHEAST NORTH DAKOTA

CITY           SKY/WX    TMP DP  RH WIND       PRES   REMARKS
FARGO          SUNNY     78  54  43 W5        29.96R
JAMESTOWN      SUNNY     80  48  32 CALM      29.96S
$$




USA.gov is the U.S. government's official web portal to all federal, state and local government web resources and services.